{"data":{"norad_id":58420,"intl_designator":"2023-180U","name":"STARLINK-30899","alt_names":[],"object_type":"PAYLOAD","status":"ACTIVE","operator":null,"country":"US","launch_date":"2023-11-22","launch_site_code":"AFETR","launch_vehicle":null,"mission":null,"orbit_class":"UNKNOWN","rcs_meters":null,"size_class":null,"mass_kg":null,"dimensions":null,"purposes":["comms"],"wikipedia_slug":null,"has_3d_model":false,"image_url":null,"decayed_at":null,"tle_current":{"epoch":"2026-05-24T21:23:04.379424Z","epoch_age_seconds":84801,"freshness":"FRESH","line1":"1 58420U 23180U   26144.89102291  .00003226  00000+0  12677-3 0  9990","line2":"2 58420  43.0029 341.8893 0001476 265.9377  94.1306 15.27565326139167","mean_motion":15.27565326,"eccentricity":0.0001476,"inclination_deg":43.0029,"raan_deg":341.8893,"arg_perigee_deg":265.9377,"mean_anomaly_deg":94.1306,"bstar":0.00012677,"rev_number":13916,"period_min":94.267654252843,"perigee_km":482.08031807308,"apogee_km":484.10575317959,"semimajor_km":6861.2300356263,"source":"CELESTRAK","updated_at":"2026-05-25T13:38:18.620416Z"}}}